Location: El Para�so
(10.4896°N, 66.9245°W)
Time: 20:20:40
(UTC+00:00)

CZ-4 R/B - Pass Details

Date: 08 August 2020
Orbit: 530 x 600 km, 97.7° (Epoch: 01 October)

Event Time Altitude Azimuth Distance (km) Brightness Sun altitude
Rises 23:09:41 0° 162° (SSE) 2,660 4.5 -5.8°
Reaches altitude 10° 23:11:48 10° 158° (SSE) 1,772 3.5 -6.2°
Maximum altitude 23:15:33 61° 78° (ENE) 606 1.3 -7.1°
Drops below altitude 10° 23:19:22 10° 358° (N) 1,789 4.2 -8.0°
Sets 23:21:30 0° 354° (N) 2,688 5.2 -8.5°
